Regional Weather Roundup
Issued by NWS Little Rock, AR

Home | Current Version | Previous Version | Text Only | Print | Product List | Glossary Off
Versions: 1 2 3 4 5 6 7 8 9 10 11 12 13 14 15 16 17 18 19 20 21 22 23 24 25 26 27 28 29 30 31 32 33 34 35 36 37 38 39 40 41 42 43 44 45 46 47 48 49 50

000
ASUS44 KLZK 190405
RWRLZK

WEATHER ROUNDUP FOR ARKANSAS
NATIONAL WEATHER SERVICE LITTLE ROCK AR
1000 PM CST WED JAN 18 2017

NOTE: "FAIR" INDICATES FEW OR NO CLOUDS BELOW 12,000 FEET WITH NO
SIGNIFICANT WEATHER AND/OR OBSTRUCTIONS TO VISIBILITY.

ARZ001-003-010-029-190500-
NORTHWEST ARKANSAS

CITY           SKY/WX    TMP DP  RH WIND       PRES   REMARKS
FAYETTEVILLE   CLOUDY    47  47 100 CALM      29.98F
FORT SMITH     CLOUDY    46  43  89 E10       30.00F
HARRISON       CLOUDY    42  42 100 SE10      30.01F FOG
BENTONVILLE    CLOUDY   N/A N/A N/A CALM      29.98S
ROGERS         CLOUDY    44  44 100 SE6       29.98F
SILOAM SPGS    CLOUDY    46  45  93 S3        29.97F
HIGHFILL       CLOUDY    48  48 100 SE5       29.97F
$$

ARZ004-005-016-190500-
NORTH CENTRAL ARKANSAS

CITY           SKY/WX    TMP DP  RH WIND       PRES   REMARKS
BATESVILLE     CLOUDY    45  41  87 CALM      30.05F
FLIPPIN        CLOUDY    45  37  76 E8        30.02F
MTN HOME       CLOUDY    43  41  93 SE6       30.03S
$$

ARZ040-041-190500-
WEST CENTRAL ARKANSAS

CITY           SKY/WX    TMP DP  RH WIND       PRES   REMARKS
MENA           CLOUDY    46  46 100 E3        30.00F
MOUNT IDA      CLOUDY    47  46  97 CALM      29.99S FOG
$$

ARZ009-017-025-026-028-190500-
NORTHEAST ARKANSAS

CITY           SKY/WX    TMP DP  RH WIND       PRES   REMARKS
CORNING        CLOUDY    45  45 100 NE9       30.07F
JONESBORO      CLOUDY    46  44  93 E13       30.03F
NEWPORT        CLOUDY    46  44  93 NE7       30.04F
WALNUT RIDGE   CLOUDY    45  39  81 NE8       30.05F
BLYTHEVILLE    CLOUDY    48  45  89 NE5       30.08S
$$

ARZ022-023-033-042-044-190500-
CENTRAL ARKANSAS

CITY           SKY/WX    TMP DP  RH WIND       PRES   REMARKS
LITTLE ROCK    CLOUDY    47  46  97 NE5       30.03F
N LITTLE ROCK    N/A     46  44  95 NE5       30.05F
JACKSONVILLE   CLOUDY    47  47  99 N5        30.02F
SEARCY         CLOUDY    47  45  93 NE7       30.05F
HOT SPRINGS    CLOUDY    47  47 100 NE3       30.03R FOG
RUSSELLVILLE   CLOUDY    46  44  93 CALM      30.02F
CLINTON        FOG       45  45 100 CALM      30.05S VSB 3/4
$$

ARZ036-190500-
EAST ARKANSAS

CITY           SKY/WX    TMP DP  RH WIND       PRES   REMARKS
WEST MEMPHIS   LGT RAIN  50  50 100 NE6       30.02F FOG
$$

ARZ050-053-066-070-073-190500-
SOUTHWEST ARKANSAS

CITY           SKY/WX    TMP DP  RH WIND       PRES   REMARKS
ARKADELPHIA    CLOUDY    47  47 100 N7        30.02F FOG
CAMDEN         CLOUDY    50  48  93 N6        29.99F FOG
TEXARKANA      CLOUDY    48  48 100 NE7       30.00S FOG
EL DORADO      FOG       51  51 100 N3        29.99S VSB 1/2
DE QUEEN       CLOUDY    49  49 100 E6        29.99S
$$

ARZ056-057-069-190500-
SOUTHEAST ARKANSAS

CITY           SKY/WX    TMP DP  RH WIND       PRES   REMARKS
PINE BLUFF     CLOUDY    50  48  93 N8        30.00F
STUTTGART      CLOUDY    50  43  76 NE8       30.02F
MONTICELLO     CLOUDY    55  53  93 CALM      29.98S FOG

$$





USA.gov is the U.S. government's official web portal to all federal, state and local government web resources and services.